TimeCST,TemperatureF,Dew PointF,Humidity,Sea Level PressureIn,VisibilityMPH,Wind Direction,Wind SpeedMPH,Gust SpeedMPH,PrecipitationIn,Events,Conditions,WindDirDegrees,DateUTC
12:15 AM,15.3,9.5,78,29.59,10.0,WNW,15.0,25.3,N/A,,Overcast,290,2013-01-31 06:15:00
12:35 AM,14.9,9.5,79,29.59,10.0,WNW,15.0,20.7,N/A,,Overcast,290,2013-01-31 06:35:00
12:55 AM,14.9,9.3,79,29.60,7.0,West,12.7,19.6,N/A,,Overcast,280,2013-01-31 06:55:00
1:15 AM,14.7,9.1,79,29.61,7.0,West,13.8,24.2,N/A,,Overcast,280,2013-01-31 07:15:00
1:35 AM,14.7,8.4,76,29.62,7.0,West,13.8,23.0,N/A,,Overcast,280,2013-01-31 07:35:00
1:55 AM,14.5,7.7,74,29.62,10.0,WNW,15.0,20.7,N/A,,Overcast,290,2013-01-31 07:55:00
2:15 AM,14.4,7.7,75,29.64,10.0,West,16.1,21.9,N/A,,Overcast,280,2013-01-31 08:15:00
2:35 AM,13.6,7.3,76,29.64,10.0,West,18.4,24.2,N/A,,Overcast,280,2013-01-31 08:35:00
2:55 AM,13.3,6.3,74,29.64,10.0,WNW,15.0,20.7,N/A,,Overcast,290,2013-01-31 08:55:00
3:15 AM,13.3,6.6,75,29.64,7.0,WNW,10.4,15.0,N/A,,Overcast,290,2013-01-31 09:15:00
3:35 AM,13.5,7.3,77,29.64,10.0,WNW,9.2,-,N/A,,Overcast,290,2013-01-31 09:35:00
3:55 AM,13.6,7.9,78,29.65,10.0,WNW,9.2,-,N/A,,Overcast,290,2013-01-31 09:55:00
4:15 AM,13.1,8.1,80,29.66,7.0,WNW,11.5,-,N/A,Snow,Light Snow,300,2013-01-31 10:15:00
4:35 AM,13.1,5.5,72,29.66,10.0,WNW,11.5,20.7,N/A,,Overcast,300,2013-01-31 10:35:00
4:55 AM,12.9,5.4,72,29.67,10.0,WNW,12.7,19.6,N/A,,Overcast,300,2013-01-31 10:55:00
5:15 AM,12.4,5.9,75,29.67,10.0,WNW,12.7,-,N/A,,Overcast,300,2013-01-31 11:15:00
5:35 AM,12.2,6.8,79,29.68,7.0,WNW,6.9,-,N/A,,Overcast,300,2013-01-31 11:35:00
6:15 AM,12.0,7.9,83,29.69,3.0,West,8.1,-,N/A,Snow,Light Snow,280,2013-01-31 12:15:00
6:35 AM,11.8,8.4,86,29.69,4.0,West,8.1,-,N/A,Snow,Light Snow,280,2013-01-31 12:35:00
6:55 AM,11.8,5.9,77,29.70,5.0,West,12.7,21.9,N/A,,Haze,280,2013-01-31 12:55:00
7:15 AM,10.8,4.5,76,29.71,10.0,West,12.7,17.3,N/A,,Overcast,280,2013-01-31 13:15:00
7:35 AM,10.0,3.2,74,29.72,10.0,West,10.4,17.3,N/A,,Scattered Clouds,280,2013-01-31 13:35:00
7:55 AM,10.0,2.7,72,29.74,7.0,West,13.8,24.2,N/A,,Clear,280,2013-01-31 13:55:00
8:15 AM,10.2,2.3,70,29.74,10.0,WNW,13.8,19.6,N/A,,Clear,290,2013-01-31 14:15:00
8:35 AM,10.4,2.3,70,29.75,10.0,WNW,17.3,20.7,N/A,,Clear,290,2013-01-31 14:35:00
8:55 AM,10.9,1.8,67,29.76,10.0,WNW,10.4,19.6,N/A,,Clear,290,2013-01-31 14:55:00
9:15 AM,11.1,1.9,67,29.77,10.0,WNW,12.7,19.6,N/A,,Clear,290,2013-01-31 15:15:00
9:35 AM,11.1,2.1,67,29.77,10.0,WNW,13.8,-,N/A,,Clear,290,2013-01-31 15:35:00
9:55 AM,11.8,1.9,65,29.78,10.0,NW,12.7,18.4,N/A,,Clear,310,2013-01-31 15:55:00
10:15 AM,11.7,1.0,62,29.79,10.0,WNW,11.5,23.0,N/A,,Clear,300,2013-01-31 16:15:00
10:35 AM,11.5,1.8,65,29.80,10.0,WNW,15.0,20.7,N/A,,Scattered Clouds,300,2013-01-31 16:35:00
10:55 AM,11.8,1.6,63,29.80,10.0,WNW,12.7,24.2,N/A,,Mostly Cloudy,300,2013-01-31 16:55:00
11:15 AM,11.5,1.4,64,29.81,10.0,WNW,12.7,24.2,N/A,,Mostly Cloudy,290,2013-01-31 17:15:00
11:35 AM,11.7,1.2,63,29.81,10.0,West,16.1,20.7,N/A,,Overcast,280,2013-01-31 17:35:00
11:55 AM,11.3,2.3,67,29.82,10.0,West,13.8,-,N/A,,Overcast,280,2013-01-31 17:55:00
12:15 PM,11.3,1.9,66,29.82,10.0,WNW,11.5,-,N/A,,Overcast,290,2013-01-31 18:15:00
12:35 PM,11.5,2.5,67,29.82,10.0,WNW,10.4,18.4,N/A,,Overcast,300,2013-01-31 18:35:00
12:55 PM,11.5,2.3,67,29.83,10.0,West,13.8,17.3,N/A,,Overcast,280,2013-01-31 18:55:00
1:15 PM,11.8,3.2,68,29.83,10.0,WNW,13.8,18.4,N/A,,Overcast,290,2013-01-31 19:15:00
1:35 PM,11.8,2.5,66,29.84,10.0,WNW,13.8,19.6,N/A,,Overcast,300,2013-01-31 19:35:00
1:55 PM,11.5,2.7,68,29.85,10.0,WNW,10.4,16.1,N/A,,Overcast,290,2013-01-31 19:55:00
2:15 PM,11.1,3.0,70,29.85,5.0,West,12.7,-,N/A,,Haze,280,2013-01-31 20:15:00
2:35 PM,10.9,3.4,72,29.86,5.0,West,13.8,20.7,N/A,,Haze,280,2013-01-31 20:35:00
2:55 PM,10.6,3.9,75,29.87,3.0,WNW,12.7,19.6,N/A,,Haze,290,2013-01-31 20:55:00
3:15 PM,10.6,3.7,74,29.87,4.0,West,12.7,18.4,N/A,,Haze,280,2013-01-31 21:15:00
3:35 PM,10.8,4.3,75,29.88,5.0,WNW,11.5,17.3,N/A,,Haze,290,2013-01-31 21:35:00
4:15 PM,9.5,1.4,70,29.90,10.0,WNW,11.5,23.0,N/A,,Overcast,290,2013-01-31 22:15:00
4:35 PM,9.5,2.5,73,29.91,7.0,West,12.7,16.1,N/A,,Overcast,280,2013-01-31 22:35:00
4:55 PM,8.8,2.1,74,29.91,10.0,WNW,8.1,19.6,N/A,,Overcast,290,2013-01-31 22:55:00
5:15 PM,8.2,1.4,74,29.93,10.0,WNW,11.5,19.6,N/A,,Mostly Cloudy,290,2013-01-31 23:15:00
5:35 PM,8.1,2.3,77,29.94,5.0,WNW,15.0,20.7,N/A,,Haze,290,2013-01-31 23:35:00
5:55 PM,8.1,1.6,75,29.95,10.0,WNW,10.4,18.4,N/A,,Overcast,290,2013-01-31 23:55:00
6:15 PM,7.7,1.0,74,29.96,10.0,WNW,15.0,18.4,N/A,,Overcast,300,2013-02-01 00:15:00
6:35 PM,7.2,-0.4,71,29.97,10.0,WNW,15.0,20.7,N/A,,Scattered Clouds,300,2013-02-01 00:35:00
6:55 PM,6.8,-1.3,69,29.98,10.0,WNW,15.0,24.2,N/A,,Mostly Cloudy,290,2013-02-01 00:55:00
7:15 PM,6.4,-1.3,71,29.99,10.0,WNW,12.7,-,N/A,,Mostly Cloudy,300,2013-02-01 01:15:00
7:35 PM,5.9,-1.3,72,30.00,10.0,WNW,13.8,23.0,N/A,,Overcast,290,2013-02-01 01:35:00
7:55 PM,5.5,-1.7,72,30.01,10.0,WNW,17.3,21.9,N/A,,Scattered Clouds,290,2013-02-01 01:55:00
8:15 PM,5.0,-2.4,72,30.02,10.0,WNW,13.8,23.0,N/A,,Scattered Clouds,290,2013-02-01 02:15:00
8:35 PM,4.5,-2.6,73,30.03,10.0,WNW,13.8,18.4,N/A,,Clear,290,2013-02-01 02:35:00
8:55 PM,4.1,-3.5,71,30.04,10.0,WNW,15.0,21.9,N/A,,Clear,290,2013-02-01 02:55:00
9:15 PM,3.6,-4.0,71,30.05,10.0,WNW,12.7,18.4,N/A,,Clear,300,2013-02-01 03:15:00
9:35 PM,3.2,-4.5,70,30.06,10.0,WNW,13.8,19.6,N/A,,Clear,300,2013-02-01 03:35:00
9:55 PM,2.8,-4.5,71,30.06,10.0,WNW,15.0,19.6,N/A,,Clear,290,2013-02-01 03:55:00
10:15 PM,2.7,-4.7,71,30.07,10.0,WNW,12.7,19.6,N/A,,Clear,290,2013-02-01 04:15:00
10:55 PM,2.1,-4.9,72,30.09,10.0,WNW,11.5,-,N/A,,Clear,290,2013-02-01 04:55:00
11:15 PM,1.8,-5.3,72,30.09,10.0,WNW,11.5,16.1,N/A,,Clear,290,2013-02-01 05:15:00
11:35 PM,1.6,-5.4,72,30.10,10.0,WNW,9.2,18.4,N/A,,Clear,290,2013-02-01 05:35:00
11:55 PM,1.0,-5.4,74,30.11,10.0,West,9.2,-,N/A,,Clear,280,2013-02-01 05:55:00